Location: Newark
(35.6799°N, 139.7636°E)
Time: 11:21:19
(UTC+00:00)

Courier 1B - Pass Details

Date: 16 December 2019
Orbit: 962 x 1209 km, 28.3° (Epoch: 17 January)

Event Time Altitude Azimuth Distance (km) Brightness Sun altitude
Rises 09:25:10 0° 236° (SW) 3,712 11.7 -22.9°
Reaches altitude 10° 09:28:00 10° 228° (SW) 2,795 10.7 -23.4°
Maximum altitude 09:34:06 35° 164° (SSE) 1,626 8.6 -24.6°
Enters shadow 09:35:56 31° 135° (SE) 1,787 8.6 -25.0°
